Bat Cave, NC

12:37 PM EST on February 14, 2016 (GMT -0500)
Asheville Regional

Weather History for KAVL - November, 2008

Change the Weather History Date:

Friday, November 7, 2008

  Actual Average Record
Temperature  
Mean Temperature 54 °F 50 °F  
Max Temperature 73 °F 62 °F 76 °F (1890)
Min Temperature 35 °F 38 °F 20 °F (1894)
Degree Days  
Heating Degree Days 11 15  
Month to date heating degree days 85 100  
Since 1 July heating degree days 451 435  
Cooling Degree Days 0 0  
Month to date cooling degree days 0 0  
Year to date cooling degree days 875 862  
Growing Degree Days 4 (Base 50)    
Moisture  
Dew Point 44 °F    
Average Humidity 62    
Maximum Humidity 92    
Minimum Humidity 31    
Precipitation  
Precipitation 0.02 in 0.11 in 1.44 in (2006)
Month to date precipitation 0.02 0.75  
Year to date precipitation 29.30 39.08  
Snow  
Snow 0.00 in 0.00 in 0.00 in ()
Month to date snowfall 0.0 0.0  
Since 1 July snowfall T 0.0  
Since 1 September snowfall T 0.0  
Snow Depth -    
Sea Level Pressure  
Sea Level Pressure 29.92 in    
Wind  
Wind Speed 5 mph (South)    
Max Wind Speed 18 mph    
Max Gust Speed 25 mph    
Visibility 10 miles    
Events Rain    
T = Trace of Precipitation, MM = Missing Value Source: NWS Daily Summary

Daily Weather History Graph

Daily Weather History Graph

Search for Another Location

Airport or City:

Trip Planner

Search our weather history database for the weather conditions in past years. The results will help you decide how hot, cold, wet, or windy it might be!

Date:

Astronomy

Nov. 07, 2008 Rise Set
Actual Time 6:58 AM EST 5:29 PM EST
Civil Twilight 6:31 AM EST 5:55 PM EST
Nautical Twilight 6:01 AM EST 6:26 PM EST
Astronomical Twilight 5:31 AM EST 6:56 PM EST
Moon 2:07 PM EST (11/7) 12:46 AM EST (11/7)
Length of Visible Light 11h 24m
Length of Day
10h 31m
Waxing Gibbous, 65% of the Moon is Illuminated
Nov 7
Waxing Gibbous
Nov 13
Full
Nov 19
Last Quarter
Nov 27
New
Dec 5
First Quarter

Hourly Weather History & Observations

Time (EST) Temp. Dew Point Humidity Pressure Visibility Wind Dir Wind Speed Gust Speed Precip Events Conditions
12:54 AM 42.1 °F 39.0 °F 89% 30.02 in 10.0 mi Calm Calm - N/A   Clear
1:54 AM 39.9 °F 37.0 °F 89% 30.01 in 10.0 mi Calm Calm - N/A   Clear
2:54 AM 39.0 °F 37.9 °F 96% 30.01 in 10.0 mi Calm Calm - N/A   Clear
3:54 AM 37.9 °F 35.1 °F 89% 30.00 in 10.0 mi Calm Calm - N/A   Clear
4:54 AM 37.0 °F 36.0 °F 96% 30.01 in 10.0 mi Calm Calm - N/A   Clear
5:54 AM 35.1 °F 34.0 °F 96% 30.02 in 9.0 mi Calm Calm - N/A   Clear
6:54 AM 35.1 °F 33.1 °F 92% 30.02 in 10.0 mi Calm Calm - N/A   Clear
7:54 AM 37.9 °F 35.1 °F 89% 30.03 in 10.0 mi Calm Calm - N/A   Clear
8:54 AM 42.8 °F 39.2 °F 87% 30.03 in 10.0 mi Calm Calm - N/A   Clear
9:54 AM 51.1 °F 42.1 °F 71% 30.00 in 10.0 mi Calm Calm - N/A   Clear
10:54 AM 60.1 °F 39.9 °F 47% 29.98 in 7.0 mi Calm Calm - N/A   Clear
11:54 AM 66.0 °F 42.1 °F 42% 29.93 in 10.0 mi South 6.9 mph - N/A   Clear
12:54 PM 69.1 °F 39.0 °F 33% 29.89 in 10.0 mi SE 8.1 mph - N/A   Clear
1:54 PM 72.0 °F 39.0 °F 30% 29.86 in 10.0 mi South 12.7 mph - N/A   Clear
2:54 PM 70.0 °F 46.0 °F 42% 29.85 in 10.0 mi SSW 16.1 mph 24.2 mph N/A   Clear
3:54 PM 69.1 °F 50.0 °F 51% 29.84 in 10.0 mi SSW 11.5 mph 23.0 mph N/A   Clear
4:54 PM 66.9 °F 50.0 °F 54% 29.85 in 10.0 mi SSW 12.7 mph - N/A   Overcast
5:54 PM 64.9 °F 50.0 °F 58% 29.86 in 10.0 mi South 8.1 mph - N/A   Overcast
6:54 PM 64.0 °F 50.0 °F 60% 29.87 in 10.0 mi South 8.1 mph - N/A   Overcast
7:54 PM 63.0 °F 51.1 °F 65% 29.86 in 10.0 mi South 6.9 mph 20.7 mph N/A   Overcast
8:54 PM 62.1 °F 52.0 °F 70% 29.84 in 10.0 mi South 10.4 mph - N/A   Overcast
9:54 PM 60.1 °F 55.0 °F 83% 29.83 in 10.0 mi South 11.5 mph - 0.00 in Rain Light Rain
10:21 PM 59.0 °F 55.4 °F 88% 29.87 in 10.0 mi SSW 6.9 mph - 0.01 in Rain Light Rain
10:54 PM 57.9 °F 55.9 °F 93% 29.81 in 10.0 mi South 3.5 mph - 0.02 in   Overcast
11:17 PM 59.0 °F 55.4 °F 88% 29.85 in 10.0 mi South 9.2 mph - N/A   Mostly Cloudy
11:54 PM 57.9 °F 55.9 °F 93% 29.79 in 10.0 mi South 8.1 mph - 0.00 in Rain Light Rain